Wind_Speed
18 18 17 17 17 16 15 15 14 13 11 11 10 9 9 8 7 6 4 4 4 4 4 5 5 6 6 6 7 9 10 10 10 10 10 10 11 11 12 13 13 13 14 14 13 13 13 12 12
18 18 18 18 19 17 17 17 15 13 12 11 10 10 9 9 8 7 6 5 5 5 5 5 6 6 7 7 8 9 10 10 10 10 10 11 11 11 12 13 13 13 14 13 13 13 12 12 11
19 19 19 21 21 18 17 17 15 14 12 12 10 10 10 9 8 7 7 7 7 6 6 6 7 7 8 8 9 9 9 10 10 10 11 12 12 12 12 12 13 13 13 13 13 12 12 11 10
17 19 21 22 21 19 18 17 16 15 14 12 12 11 10 9 9 8 8 9 8 8 8 7 9 9 8 8 9 10 10 10 10 10 11 12 12 13 12 12 13 12 12 12 12 11 11 10 10
18 19 21 21 20 20 19 17 17 16 15 13 13 11 10 10 10 9 9 9 9 9 9 9 10 9 9 9 9 9 10 10 11 11 11 12 12 12 12 12 12 12 11 11 10 9 9 9 9
17 19 20 20 19 19 18 17 16 15 15 14 13 12 11 11 11 11 10 10 9 9 9 10 10 10 9 9 9 9 10 11 11 11 10 11 12 12 12 12 11 11 10 9 9 9 8 8 8
16 19 19 19 18 18 18 16 15 15 14 14 14 13 12 11 12 12 12 11 11 10 10 10 10 10 10 9 9 9 10 10 10 11 11 11 11 12 12 11 10 10 9 9 8 8 7 7 7
17 18 18 18 19 19 17 16 15 16 15 14 14 14 13 12 12 12 12 11 11 10 10 10 10 10 10 9 9 9 10 10 10 11 11 10 10 10 11 10 9 8 8 8 7 7 7 7 6
16 16 16 17 18 18 17 16 16 16 14 14 15 14 13 13 13 12 11 11 11 11 10 10 10 10 9 9 9 9 9 9 9 10 10 9 9 9 9 9 8 8 7 6 6 6 6 6 5
15 14 16 17 17 18 18 17 17 16 15 15 15 14 14 13 13 13 12 12 11 10 10 10 10 10 9 10 10 9 9 8 9 9 8 9 8 8 8 8 8 7 6 5 5 5 5 5 5
14 14 16 16 16 17 18 18 17 16 16 16 15 15 14 14 14 14 13 13 12 11 10 10 10 10 10 9 9 9 8 8 8 8 9 9 8 8 8 7 7 6 6 5 4 5 5 4 4
12 13 14 14 15 17 19 19 19 16 16 16 15 14 14 13 13 14 14 13 12 11 11 10 10 10 10 10 9 9 9 9 8 8 8 7 7 7 7 7 6 5 5 4 4 4 4 3 3
9 11 13 14 15 17 18 19 19 17 16 15 15 14 14 14 13 13 14 14 13 12 11 11 11 11 10 10 10 9 9 8 7 7 7 6 6 6 7 7 6 5 4 4 3 3 3 2 2
7 7 10 13 15 16 17 17 18 17 17 16 15 15 14 13 13 13 14 14 13 12 12 12 12 11 11 10 10 9 8 8 7 7 6 6 6 6 6 5 5 4 4 3 3 2 2 1 0
5 5 6 10 13 14 14 15 15 16 16 16 15 14 14 13 13 13 13 13 13 13 13 13 13 12 12 11 10 9 8 8 7 7 5 5 6 6 5 4 4 3 3 2 2 1 1 0 1
4 3 4 7 9 11 12 14 14 14 14 14 14 14 13 13 13 12 13 13 13 14 14 14 13 13 12 11 9 9 8 8 7 6 6 6 5 5 5 5 4 3 2 1 0 0 1 1 2
5 3 4 5 7 8 11 12 13 13 13 13 13 13 13 13 12 12 12 12 13 13 13 13 12 12 11 10 10 9 8 8 7 7 6 6 5 5 5 5 4 3 2 2 1 1 1 2 3
4 2 2 3 5 6 9 10 11 11 11 12 12 12 12 13 12 11 11 11 12 12 12 12 12 11 11 11 10 9 9 8 8 7 6 6 5 5 5 4 4 3 3 3 2 1 3 3 4
3 3 1 2 3 5 7 8 8 8 9 9 10 11 11 11 11 10 11 11 11 11 11 11 12 11 11 11 10 10 9 9 8 7 7 6 5 5 4 3 3 3 3 3 3 3 4 4 5
5 4 3 1 1 3 4 5 6 6 7 7 8 9 10 10 10 9 10 10 10 10 11 11 11 10 11 11 10 10 10 10 9 8 7 6 6 5 4 3 3 3 3 3 4 4 5 5 6
8 5 4 4 4 5 5 5 4 4 5 5 6 7 8 8 8 8 8 8 9 9 10 10 10 9 10 10 10 10 10 9 9 8 7 5 5 4 3 3 2 3 4 4 5 5 5 5 6
11 7 7 8 9 9 8 7 6 6 4 3 4 5 6 6 6 6 6 7 8 8 8 8 8 8 9 9 9 9 9 8 8 7 6 5 4 4 3 3 3 3 4 5 6 6 6 6 7
12 10 11 11 12 12 11 11 8 8 4 3 3 3 3 4 4 5 5 5 6 6 6 6 7 7 7 8 8 7 7 7 7 7 6 6 5 4 4 4 4 5 6 6 7 6 7 7 8
14 14 15 15 15 14 12 13 10 7 5 3 3 2 2 3 3 3 3 3 4 4 5 5 5 6 6 6 6 6 7 7 6 6 6 6 6 5 5 5 5 6 7 7 7 8 8 8 9
17 17 17 17 17 16 13 14 10 8 8 6 4 3 3 2 3 2 1 2 2 3 3 4 4 4 5 5 4 4 5 5 5 5 5 6 6 6 6 6 7 8 8 8 8 9 9 9 9
18 18 20 18 17 15 14 14 11 10 11 8 6 4 4 4 3 3 2 1 1 1 2 2 3 4 4 5 4 4 4 4 5 6 7 7 7 7 7 8 8 9 9 10 10 11 11 11 11
20 19 19 19 18 16 15 14 13 12 11 9 8 6 6 5 5 5 4 4 3 2 1 1 2 2 3 4 4 4 4 5 5 7 7 8 8 8 8 8 10 10 11 12 12 11 12 12 12
22 20 21 22 20 18 16 15 15 13 12 10 9 8 7 7 7 8 7 7 6 4 3 2 2 2 3 4 4 5 5 6 6 7 8 8 9 9 10 10 11 12 13 13 13 12 12 13 13
23 22 23 23 22 22 20 18 16 14 12 11 11 10 9 9 9 10 10 9 9 8 6 4 4 4 4 4 5 6 6 7 7 8 8 9 9 10 11 12 13 13 13 13 13 13 13 14 15
23 23 23 24 22 22 22 21 18 16 14 14 13 12 11 11 11 11 11 10 10 9 9 8 7 5 5 6 6 7 8 8 9 9 9 10 10 11 12 13 14 15 14 14 14 14 15 15 16
Wind_Direction
64 59 54 52 52 50 48 52 52 54 59 59 57 53 47 47 42 51 58 72 84 88 91 89 89 89 90 86 83 87 97 104 106 108 112 115 118 122 124 124 125 125 126 128 127 127 124 122 121
60 55 50 48 48 48 48 49 52 54 59 59 55 52 50 50 51 57 63 75 87 91 97 95 94 92 91 89 87 91 98 103 109 110 114 117 119 122 123 124 123 122 124 125 123 123 122 119 118
64 55 48 48 47 44 44 48 53 57 55 57 56 53 52 52 57 61 69 77 84 91 97 96 94 93 93 91 89 90 97 103 108 112 113 114 116 120 123 122 121 121 123 125 124 123 120 119 117
65 54 46 45 44 44 43 46 49 54 53 54 55 56 55 58 62 66 75 81 80 86 91 94 94 91 94 96 96 94 96 103 107 110 110 110 113 118 120 121 122 122 122 126 123 120 117 117 116
56 52 44 43 43 42 43 46 48 50 51 52 57 59 59 62 68 76 80 81 80 84 87 89 90 91 95 102 101 101 98 103 108 109 109 111 115 119 118 119 121 122 122 123 123 122 118 116 118
50 51 44 39 40 39 44 48 49 49 49 53 57 60 58 64 70 76 81 84 85 87 87 89 91 90 91 101 101 103 103 107 110 108 109 114 114 114 115 117 121 123 123 122 120 121 119 119 118
51 50 45 42 38 37 42 48 51 53 51 53 57 60 60 65 72 76 79 82 82 83 86 90 90 90 89 93 97 101 102 110 113 110 110 114 116 115 114 116 120 121 120 119 120 122 120 122 118
51 48 42 41 40 38 43 48 51 54 54 54 55 59 61 69 73 74 76 81 81 82 87 92 89 89 89 89 94 101 102 105 112 117 114 116 119 118 115 117 121 122 120 121 122 121 126 121 115
55 49 43 43 42 41 45 49 51 54 57 56 56 59 64 71 72 74 76 80 85 85 88 91 89 90 94 93 95 103 105 104 109 115 115 115 119 119 119 121 121 122 122 122 121 119 124 119 111
57 49 50 48 46 47 48 50 52 53 55 55 55 57 63 69 71 73 76 80 86 87 88 89 92 93 97 99 98 102 107 108 111 116 115 114 119 119 121 117 116 114 113 112 116 115 111 112 110
58 53 53 51 50 52 51 51 50 51 52 53 52 55 60 64 68 72 74 79 83 86 87 86 87 91 95 98 98 100 104 106 111 116 118 120 121 124 122 118 118 115 116 117 119 113 111 109 116
62 56 56 58 54 54 54 53 51 49 52 52 51 55 60 64 66 68 72 76 79 82 84 86 89 91 93 97 99 97 100 104 108 112 114 120 121 123 125 125 123 119 117 115 113 111 112 116 117
70 61 58 57 58 58 58 56 51 49 49 51 53 55 56 61 65 69 70 73 75 78 83 88 91 90 94 98 96 92 96 101 106 108 113 122 129 129 119 120 122 121 121 116 105 108 112 109 96
77 57 56 59 58 58 56 54 50 47 48 50 52 54 56 58 62 67 69 70 74 78 82 84 87 87 89 93 93 92 97 98 99 104 109 116 125 121 115 110 116 127 128 123 114 117 125 120 136
97 70 54 59 58 56 56 52 49 48 49 50 51 55 58 58 59 64 67 68 72 79 83 84 86 89 89 91 91 92 92 92 94 98 107 113 118 120 118 116 118 120 125 128 128 148 150 217 267
130 110 68 63 57 55 53 49 47 46 47 48 49 52 56 58 59 63 66 67 70 75 81 83 84 85 88 89 86 86 89 92 97 101 105 113 115 115 106 109 110 112 115 110 101 295 275 292 303
145 119 83 69 58 55 47 44 42 42 45 47 48 52 56 58 60 65 69 70 70 72 78 81 81 82 82 83 81 81 88 89 93 98 99 103 107 105 102 99 94 92 77 54 33 353 332 320 312
137 124 64 71 40 51 45 40 42 38 40 44 49 51 55 57 57 62 68 71 71 71 73 76 77 79 79 78 76 74 77 81 84 90 93 98 98 94 94 92 85 63 53 40 25 349 330 325 317
153 141 97 56 24 20 30 29 32 34 36 42 51 53 54 57 58 63 68 69 70 69 71 73 76 80 81 78 75 73 75 75 76 80 81 84 81 77 74 72 63 43 32 26 18 1 339 324 316
193 186 204 240 285 325 350 359 8 23 23 43 50 55 58 59 61 65 70 69 69 69 69 71 73 75 76 75 76 73 72 71 70 71 76 76 75 71 63 54 44 28 6 355 350 349 344 337 331
217 219 237 257 267 260 292 314 324 347 14 34 49 51 54 61 64 65 65 68 69 70 69 70 73 75 79 76 75 73 71 68 64 64 69 70 65 57 51 42 27 358 348 339 332 329 328 328 328
219 229 243 244 248 265 281 294 305 311 339 17 40 39 45 48 58 67 67 66 66 69 71 72 72 70 75 71 73 70 67 63 59 57 60 56 48 43 34 12 347 341 340 338 332 325 322 321 324
221 226 238 240 241 251 264 282 293 286 299 343 360 15 31 33 42 57 63 62 61 64 67 67 68 68 65 56 62 63 58 57 54 49 45 36 29 22 11 0 352 344 338 336 335 327 321 318 318
225 228 232 236 239 246 255 269 274 269 279 301 317 341 5 15 5 29 52 57 61 60 60 60 60 57 52 46 55 62 54 49 48 46 39 25 15 6 1 354 347 343 337 331 329 325 323 320 318
223 225 228 231 236 240 248 259 260 263 268 274 284 298 316 327 319 328 27 49 58 60 58 51 45 40 31 30 47 46 38 34 34 28 18 10 2 359 354 345 337 336 338 333 328 323 318 318 318
225 229 230 234 235 240 250 254 256 266 266 271 274 283 282 272 275 291 302 292 331 27 35 36 30 24 23 33 42 40 31 23 18 12 5 358 357 353 350 345 339 332 330 331 327 324 321 318 319
227 231 234 240 242 246 252 253 255 258 265 265 263 265 276 279 275 273 268 263 262 263 291 345 353 2 3 1 12 18 7 0 360 357 356 353 351 345 340 338 332 326 323 322 324 320 319 316 314
227 231 233 237 241 244 250 258 257 258 260 264 264 259 272 277 281 274 273 264 256 251 252 273 302 314 325 333 339 341 343 344 340 340 341 342 341 339 333 327 327 323 319 316 316 315 314 316 316
227 232 232 233 237 244 248 253 255 254 249 255 261 260 261 262 270 281 283 270 261 258 262 254 264 280 296 308 316 321 322 323 325 327 326 327 327 329 329 325 322 321 317 314 312 312 311 311 311
227 230 232 232 234 240 246 249 251 254 253 255 255 258 260 261 269 273 271 268 264 262 264 258 262 271 282 292 301 306 309 313 315 317 318 317 317 318 318 319 320 320 317 312 308 307 306 307 308
Height
5890 5888 5888 5887 5886 5885 5883 5883 5882 5881 5881 5879 5878 5877 5877 5876 5876 5877 5875 5873 5873 5873 5872 5872 5872 5872 5871 5871 5870 5868 5867 5868 5869 5870 5870 5871 5871 5872 5873 5874 5875 5876 5877 5878 5879 5880 5881 5882 5883
5892 5891 5891 5889 5886 5885 5885 5884 5883 5883 5882 5880 5879 5878 5878 5877 5876 5875 5873 5873 5873 5873 5873 5873 5873 5873 5873 5873 5872 5871 5871 5871 5872 5872 5872 5873 5874 5874 5875 5876 5877 5878 5879 5880 5882 5883 5883 5884 5885
5895 5894 5893 5890 5887 5887 5887 5885 5884 5884 5882 5881 5881 5879 5879 5878 5876 5875 5874 5874 5874 5874 5874 5874 5874 5874 5874 5874 5874 5874 5874 5874 5874 5875 5875 5875 5876 5877 5877 5878 5879 5880 5881 5882 5884 5885 5885 5886 5887
5897 5896 5894 5891 5889 5889 5888 5887 5886 5885 5884 5882 5882 5881 5880 5879 5877 5876 5876 5875 5875 5875 5875 5875 5875 5875 5875 5875 5876 5876 5876 5876 5877 5877 5877 5878 5879 5879 5880 5881 5882 5882 5883 5884 5886 5886 5887 5888 5888
5898 5897 5895 5893 5892 5891 5890 5889 5887 5886 5885 5884 5883 5882 5881 5880 5879 5878 5877 5877 5876 5876 5876 5876 5876 5876 5877 5877 5877 5877 5878 5878 5879 5879 5880 5880 5881 5882 5882 5883 5883 5884 5885 5886 5887 5888 5889 5890 5890
5901 5899 5897 5896 5894 5893 5892 5891 5890 5888 5887 5885 5884 5883 5882 5881 5880 5879 5879 5878 5878 5878 5878 5878 5878 5878 5878 5878 5879 5879 5879 5880 5881 5881 5882 5882 5883 5884 5884 5885 5885 5886 5887 5888 5889 5890 5890 5891 5891
5904 5901 5899 5899 5897 5896 5895 5893 5892 5891 5889 5888 5886 5885 5884 5883 5882 5881 5880 5880 5880 5880 5880 5880 5879 5880 5880 5880 5880 5881 5881 5882 5882 5883 5884 5884 5885 5885 5886 5887 5887 5888 5889 5890 5890 5891 5892 5892 5892
5904 5904 5902 5901 5899 5898 5897 5895 5894 5893 5891 5890 5888 5887 5886 5885 5884 5883 5882 5882 5882 5882 5881 5881 5881 5881 5882 5882 5882 5882 5883 5883 5884 5885 5885 5886 5886 5887 5888 5888 5889 5890 5890 5891 5892 5892 5893 5893 5893
5906 5907 5905 5903 5902 5901 5899 5898 5896 5895 5893 5892 5890 5889 5888 5887 5886 5885 5884 5884 5884 5883 5883 5883 5883 5883 5883 5883 5883 5884 5885 5885 5886 5886 5887 5887 5888 5889 5889 5890 5890 5891 5891 5892 5892 5892 5893 5894 5894
5908 5908 5907 5906 5905 5903 5901 5900 5898 5897 5895 5894 5893 5892 5890 5889 5888 5887 5886 5886 5885 5885 5885 5884 5884 5884 5885 5885 5885 5886 5886 5886 5887 5888 5888 5889 5889 5890 5890 5891 5891 5892 5892 5893 5893 5893 5894 5894 5894
5910 5910 5909 5908 5907 5905 5904 5902 5900 5898 5897 5896 5895 5894 5892 5891 5890 5889 5888 5888 5887 5886 5886 5886 5885 5885 5886 5886 5886 5887 5887 5888 5888 5889 5890 5890 5891 5891 5892 5892 5892 5893 5893 5893 5894 5894 5894 5894 5895
5912 5912 5911 5910 5909 5908 5906 5905 5903 5901 5901 5899 5897 5896 5895 5894 5892 5891 5890 5889 5889 5888 5888 5887 5887 5887 5887 5888 5888 5888 5889 5889 5890 5890 5891 5891 5892 5892 5893 5893 5893 5894 5894 5894 5894 5894 5894 5895 5895
5914 5913 5913 5912 5911 5910 5909 5907 5906 5904 5903 5901 5900 5898 5897 5896 5895 5894 5893 5892 5890 5889 5889 5889 5889 5888 5889 5889 5889 5890 5890 5891 5891 5891 5892 5893 5893 5893 5894 5894 5894 5894 5895 5895 5895 5895 5895 5895 5895
5915 5915 5915 5914 5913 5912 5911 5910 5909 5907 5905 5904 5902 5901 5900 5898 5897 5896 5895 5893 5893 5892 5891 5891 5891 5891 5891 5891 5891 5892 5892 5892 5892 5892 5893 5893 5893 5894 5894 5894 5895 5895 5895 5895 5895 5895 5896 5895 5895
5916 5916 5916 5915 5915 5914 5914 5913 5911 5909 5908 5907 5905 5903 5902 5900 5899 5898 5897 5896 5895 5894 5893 5893 5893 5893 5893 5893 5893 5893 5894 5893 5893 5893 5894 5894 5894 5894 5895 5895 5895 5896 5896 5895 5895 5895 5895 5895 5895
5915 5916 5917 5917 5916 5915 5916 5915 5913 5911 5910 5909 5907 5906 5904 5903 5901 5900 5899 5898 5897 5896 5896 5895 5895 5895 5895 5895 5895 5895 5894 5894 5894 5894 5894 5894 5895 5895 5895 5896 5896 5896 5896 5896 5896 5895 5895 5895 5894
5916 5916 5916 5917 5916 5916 5916 5915 5914 5913 5912 5910 5909 5908 5906 5905 5904 5903 5902 5901 5900 5899 5898 5897 5897 5897 5897 5896 5896 5896 5896 5896 5895 5895 5895 5895 5896 5896 5896 5896 5896 5896 5896 5896 5895 5895 5895 5894 5894
5916 5916 5916 5917 5916 5916 5916 5916 5915 5915 5914 5913 5911 5910 5908 5907 5906 5905 5904 5903 5902 5901 5900 5900 5899 5899 5898 5898 5898 5898 5898 5897 5897 5896 5896 5896 5897 5897 5897 5897 5897 5897 5896 5896 5895 5895 5894 5894 5893
5915 5916 5916 5917 5917 5916 5916 5916 5916 5916 5915 5915 5913 5912 5910 5909 5908 5906 5905 5905 5904 5904 5903 5902 5902 5901 5900 5900 5900 5899 5899 5899 5898 5898 5897 5897 5897 5898 5897 5897 5897 5897 5896 5896 5895 5895 5894 5893 5892
5914 5915 5916 5916 5917 5916 5916 5916 5916 5916 5916 5915 5914 5913 5912 5911 5910 5909 5907 5907 5906 5906 5905 5904 5904 5903 5902 5902 5901 5901 5900 5900 5899 5899 5899 5898 5898 5898 5898 5897 5897 5897 5896 5895 5895 5894 5893 5892 5891
5913 5914 5915 5915 5915 5916 5916 5916 5916 5916 5916 5916 5915 5913 5913 5912 5911 5910 5909 5908 5908 5907 5907 5906 5905 5904 5904 5903 5903 5902 5902 5901 5901 5900 5900 5899 5899 5898 5898 5897 5897 5896 5896 5895 5894 5893 5892 5891 5890
5911 5913 5913 5914 5914 5914 5915 5915 5916 5915 5915 5915 5914 5914 5913 5913 5912 5911 5910 5910 5909 5909 5908 5907 5907 5905 5904 5904 5904 5903 5902 5902 5901 5900 5900 5900 5899 5898 5898 5897 5896 5896 5895 5894 5893 5892 5891 5890 5888
5909 5911 5912 5912 5913 5914 5914 5914 5915 5913 5913 5913 5913 5913 5913 5912 5912 5911 5911 5910 5910 5910 5909 5908 5908 5907 5906 5905 5905 5904 5903 5902 5902 5901 5900 5900 5899 5898 5897 5896 5895 5895 5894 5893 5891 5890 5889 5888 5886
5907 5908 5909 5910 5911 5911 5912 5912 5912 5912 5912 5912 5912 5912 5912 5911 5912 5911 5911 5911 5910 5910 5909 5909 5908 5907 5906 5905 5905 5904 5904 5903 5902 5901 5900 5900 5899 5898 5896 5895 5894 5893 5892 5891 5890 5889 5887 5886 5884
5903 5905 5906 5906 5907 5907 5909 5908 5909 5910 5910 5910 5910 5910 5910 5910 5911 5911 5911 5910 5910 5910 5909 5909 5908 5908 5907 5905 5904 5903 5903 5903 5902 5901 5900 5899 5898 5897 5895 5894 5894 5892 5891 5890 5888 5887 5885 5884 5882
5898 5900 5902 5903 5904 5905 5905 5904 5907 5907 5908 5908 5908 5908 5908 5908 5909 5910 5910 5910 5910 5909 5909 5909 5908 5907 5906 5904 5903 5903 5903 5902 5901 5900 5899 5898 5897 5895 5894 5893 5892 5891 5890 5888 5886 5885 5883 5881 5880
5894 5895 5898 5900 5900 5901 5902 5902 5903 5904 5905 5905 5905 5906 5906 5906 5907 5908 5908 5908 5908 5908 5908 5908 5907 5906 5905 5905 5904 5903 5903 5902 5901 5900 5899 5897 5896 5894 5893 5892 5891 5889 5888 5886 5884 5883 5881 5879 5877
5890 5892 5894 5895 5896 5896 5898 5898 5899 5900 5902 5902 5902 5902 5903 5903 5905 5906 5906 5906 5906 5907 5906 5906 5906 5906 5905 5904 5903 5903 5902 5901 5900 5899 5898 5896 5894 5893 5891 5890 5889 5887 5885 5883 5882 5880 5878 5877 5875
5885 5887 5888 5890 5891 5892 5893 5896 5896 5897 5897 5898 5899 5899 5899 5900 5901 5902 5903 5903 5904 5904 5904 5904 5904 5904 5903 5903 5902 5901 5901 5900 5898 5897 5896 5894 5892 5891 5889 5888 5886 5884 5882 5881 5879 5877 5875 5874 5872
5879 5881 5882 5884 5886 5887 5889 5893 5892 5892 5893 5894 5895 5896 5896 5897 5898 5899 5899 5900 5901 5901 5901 5901 5901 5901 5901 5901 5900 5899 5898 5897 5896 5895 5893 5892 5890 5888 5886 5885 5883 5881 5879 5877 5876 5874 5872 5870 5868